Date String (YYYY-MM-DD hh:mm:ss) UTC,Instrument flags,absolute air pressure of the measurement (hPa),sample flow rate (lpm),inlet stack bypass flow (lpm),air temperature of the measurement (°C),ambient temperature measured by the external sensor (°C),aerosol sample conditioner tube jacket temperature (°C),OPC LED temperature (°C),internal box temperature (°C),relative humidity of the measurement (%),span deviation,mass concentration of particles derived from Lorenz-Mie calculation of OPC scattering (μg/m³),mass concentration of particles derived from Lorenz-Mie calculation of OPC scattering (μg/m³),mass concentration of particles derived from Lorenz-Mie calculation of OPC scattering (μg/m³)
DateTimeUTC,F1_M11,P_M11,Q1_M11,Q2_M11,T1_M11,T2_M11,T3_M11,T4_M11,T5_M11,U1_M11,ZSPAN_M11,X0_M11,X2_M11,X1_M11
2023-11-20 01:00:00,SystemResetWarning,0821.3,5.00,000.00,026.1,025.2,000.0,034.4,027.5,14.9,0000.0,0005.41,0001.31,0001.05
2023-11-20 01:01:00,SystemResetWarning,0821.3,5.00,000.00,026.1,025.2,000.0,034.4,027.5,14.8,0000.0,0005.12,0001.28,0001.05
2023-11-20 01:02:00,SystemResetWarning,0821.3,5.00,000.00,026.1,025.2,000.0,034.4,027.5,14.9,0000.0,0004.90,0001.24,0001.03
2023-11-20 01:03:00,SystemResetWarning,0821.3,5.00,000.00,026.1,025.2,000.0,034.4,027.5,14.9,0000.0,0005.52,0001.22,0001.03
2023-11-20 01:04:00,SystemResetWarning,0821.3,5.00,000.00,026.1,025.2,000.0,034.4,027.6,14.9,0000.0,0003.54,0001.23,0001.01
2023-11-20 01:05:00,SystemResetWarning,0821.3,5.00,000.00,026.1,025.2,000.0,034.4,027.6,14.9,0000.0,0003.54,0001.23,0001.01
2023-11-20 01:06:00,SystemResetWarning,0821.3,5.00,000.00,026.2,025.2,000.0,034.4,027.5,14.9,0000.0,0003.61,0001.24,0000.99
2023-11-20 01:07:00,SystemResetWarning,0821.3,5.00,000.00,026.2,025.2,000.0,034.4,027.6,14.9,0000.0,0003.61,0001.25,0000.99
2023-11-20 01:08:00,SystemResetWarning,0821.3,5.00,000.00,026.2,025.2,000.0,034.4,027.5,14.9,0000.0,0003.54,0001.23,0001.00
2023-11-20 01:09:00,SystemResetWarning,0821.3,4.99,000.00,026.2,025.2,000.0,034.4,027.5,14.9,0000.0,0003.52,0001.21,0000.99
2023-11-20 01:10:00,SystemResetWarning,0821.4,4.99,000.00,026.2,025.2,000.0,034.4,027.5,14.9,0000.0,0003.47,0001.19,0000.99
2023-11-20 01:11:00,SystemResetWarning,0821.4,5.01,000.00,026.2,025.2,000.0,034.4,027.6,14.9,0000.0,0003.59,0001.21,0001.00
2023-11-20 01:12:00,SystemResetWarning,0821.4,5.01,000.00,026.2,025.2,000.0,034.4,027.5,14.9,0000.0,0003.63,0001.22,0001.00
2023-11-20 01:13:00,SystemResetWarning,0821.4,5.00,000.00,026.2,025.2,000.0,034.5,027.5,14.9,0000.0,0003.57,0001.18,0001.01
2023-11-20 01:14:00,SystemResetWarning,0821.8,5.00,000.00,026.2,025.2,000.0,034.5,027.6,14.9,0000.0,0002.97,0001.21,0001.02
2023-11-20 01:15:00,SystemResetWarning,0821.4,5.00,000.00,026.2,025.2,000.0,034.5,027.6,14.9,0000.0,0001.85,0001.22,0001.03
2023-11-20 01:16:00,SystemResetWarning,0821.7,5.00,000.00,026.2,025.2,000.0,034.5,027.6,14.9,0000.0,0001.81,0001.22,0001.04
2023-11-20 01:17:00,SystemResetWarning,0821.8,4.99,000.00,026.2,025.2,000.0,034.5,027.6,14.9,0000.0,0001.80,0001.24,0001.06
2023-11-20 01:18:00,SystemResetWarning,0822.0,4.99,000.00,026.2,025.2,000.0,034.5,027.6,14.9,0000.0,0001.82,0001.24,0001.07
2023-11-20 01:19:00,SystemResetWarning,0821.9,5.00,000.00,026.2,025.1,000.0,034.5,027.6,14.8,0000.0,0001.95,0001.29,0001.08
2023-11-20 01:20:00,SystemResetWarning,0822.0,5.00,000.00,026.2,025.1,000.0,034.5,027.6,14.6,0000.0,0002.17,0001.34,0001.09
2023-11-20 01:21:00,SystemResetWarning,0821.8,5.00,000.00,026.2,025.1,000.0,034.5,027.6,14.6,0000.0,0002.19,0001.35,0001.10
2023-11-20 01:22:00,SystemResetWarning,0822.0,5.01,000.00,026.2,025.1,000.0,034.5,027.6,14.6,0000.0,0002.15,0001.35,0001.09
2023-11-20 01:23:00,SystemResetWarning,0821.9,5.00,000.00,026.2,025.1,000.0,034.5,027.5,14.6,0000.0,0002.63,0001.35,0001.09
2023-11-20 01:24:00,SystemResetWarning,0822.0,5.00,000.00,026.2,025.1,000.0,034.5,027.5,14.6,0000.0,0003.43,0001.38,0001.10
2023-11-20 01:25:00,SystemResetWarning,0822.0,5.00,000.00,026.2,025.0,000.0,034.5,027.5,14.6,0000.0,0003.39,0001.36,0001.10
2023-11-20 01:26:00,SystemResetWarning,0821.9,5.00,000.00,026.2,025.0,000.0,034.5,027.5,14.6,0000.0,0003.51,0001.36,0001.09
2023-11-20 01:27:00,SystemResetWarning,0822.0,5.00,000.00,026.2,025.0,000.0,034.5,027.5,14.7,0000.0,0003.59,0001.36,0001.09
2023-11-20 01:28:00,SystemResetWarning,0822.0,5.00,000.00,026.1,025.0,000.0,034.5,027.5,14.7,0000.0,0004.69,0001.37,0001.09
2023-11-20 01:29:00,SystemResetWarning,0821.7,5.00,000.00,026.1,025.0,000.0,034.5,027.5,14.7,0000.0,0005.01,0001.39,0001.10
2023-11-20 01:30:00,SystemResetWarning,0821.9,5.00,000.00,026.1,025.0,000.0,034.5,027.4,14.7,0000.0,0005.02,0001.38,0001.10
2023-11-20 01:31:00,SystemResetWarning,0821.7,4.99,000.00,026.1,025.0,000.0,034.5,027.4,14.7,0000.0,0004.94,0001.39,0001.10
2023-11-20 01:32:00,SystemResetWarning,0821.5,5.00,000.00,026.1,025.0,000.0,034.5,027.4,14.8,0000.0,0005.02,0001.43,0001.10
2023-11-20 01:33:00,SystemResetWarning,0821.6,5.00,000.00,026.1,025.0,000.0,034.5,027.5,14.9,0000.0,0005.08,0001.46,0001.10
2023-11-20 01:34:00,SystemResetWarning,0821.5,5.00,000.00,026.1,025.0,000.0,034.5,027.5,15.0,0000.0,0004.70,0001.53,0001.10
2023-11-20 01:35:00,SystemResetWarning,0821.6,5.01,000.00,026.1,025.0,000.0,034.5,027.5,15.0,0000.0,0004.02,0001.52,0001.10
2023-11-20 01:36:00,SystemResetWarning,0821.6,5.00,000.00,026.1,025.0,000.0,034.5,027.5,14.9,0000.0,0004.07,0001.54,0001.10
2023-11-20 01:37:00,SystemResetWarning,0821.6,5.00,000.00,026.1,025.0,000.0,034.5,027.5,14.8,0000.0,0004.14,0001.56,0001.09
2023-11-20 01:38:00,SystemResetWarning,0821.7,5.01,000.00,026.1,025.0,000.0,034.5,027.5,14.8,0000.0,0004.05,0001.57,0001.09
2023-11-20 01:39:00,SystemResetWarning,0821.7,5.00,000.00,026.1,025.0,000.0,034.5,027.5,14.8,0000.0,0002.92,0001.54,0001.08
2023-11-20 01:40:00,SystemResetWarning,0821.7,5.00,000.00,026.1,025.0,000.0,034.5,027.5,14.7,0000.0,0002.53,0001.50,0001.07
2023-11-20 01:41:00,SystemResetWarning,0821.7,5.00,000.00,026.1,025.0,000.0,034.5,027.4,14.7,0000.0,0002.47,0001.49,0001.06
2023-11-20 01:42:00,SystemResetWarning,0821.7,5.00,000.00,026.1,025.0,000.0,034.5,027.5,14.8,0000.0,0002.35,0001.46,0001.06
2023-11-20 01:43:00,SystemResetWarning,0821.8,5.00,000.00,026.1,025.0,000.0,034.5,027.5,14.8,0000.0,0002.40,0001.43,0001.06
2023-11-20 01:44:00,SystemResetWarning,0821.7,5.00,000.00,026.1,025.0,000.0,034.5,027.5,14.9,0000.0,0002.53,0001.43,0001.05
2023-11-20 01:45:00,SystemResetWarning,0821.7,5.00,000.00,026.1,025.0,000.0,034.5,027.5,14.9,0000.0,0002.99,0001.36,0001.04
2023-11-20 01:46:00,SystemResetWarning,0821.8,5.00,000.00,026.1,025.0,000.0,034.5,027.5,14.9,0000.0,0003.48,0001.35,0001.03
2023-11-20 01:47:00,SystemResetWarning,0821.8,4.99,000.00,026.1,025.0,000.0,034.5,027.4,14.9,0000.0,0003.89,0001.34,0001.02
2023-11-20 01:48:00,SystemResetWarning,0821.8,5.00,000.00,026.1,025.0,000.0,034.5,027.4,15.0,0000.0,0004.68,0001.32,0001.02
2023-11-20 01:49:00,SystemResetWarning,0821.8,5.01,000.00,026.1,025.0,000.0,034.5,027.5,15.0,0000.0,0004.61,0001.30,0001.02
2023-11-20 01:50:00,SystemResetWarning,0821.7,5.01,000.00,026.1,025.0,000.0,034.5,027.5,15.0,0000.0,0004.70,0001.28,0001.02
2023-11-20 01:51:00,SystemResetWarning,0821.7,5.00,000.00,026.1,025.0,000.0,034.5,027.4,15.0,0000.0,0005.21,0001.30,0001.02
2023-11-20 01:52:00,SystemResetWarning,0821.7,5.00,000.00,026.1,025.0,000.0,034.5,027.5,15.0,0000.0,0005.37,0001.30,0001.01
2023-11-20 01:53:00,SystemResetWarning,0821.7,5.00,000.00,026.1,025.0,000.0,034.5,027.5,15.2,0000.0,0005.81,0001.30,0001.00
2023-11-20 01:54:00,SystemResetWarning,0821.7,5.00,000.00,026.1,025.0,000.0,034.5,027.5,15.3,0000.0,0006.50,0001.27,0000.99
2023-11-20 01:55:00,SystemResetWarning,0821.7,5.00,000.00,026.1,025.0,000.0,034.5,027.4,15.4,0000.0,0006.39,0001.25,0000.99
2023-11-20 01:56:00,SystemResetWarning,0821.6,5.00,000.00,026.1,025.0,000.0,034.5,027.4,15.5,0000.0,0005.72,0001.26,0001.00
2023-11-20 01:57:00,SystemResetWarning,0821.7,5.00,000.00,026.1,024.9,000.0,034.4,027.4,15.7,0000.0,0005.09,0001.27,0001.02
2023-11-20 01:58:00,SystemResetWarning,0821.7,5.00,000.00,026.1,024.9,000.0,034.4,027.4,15.7,0000.0,0004.75,0001.28,0001.03
2023-11-20 01:59:00,SystemResetWarning,0821.8,5.00,000.00,026.0,024.9,000.0,034.4,027.4,15.7,0000.0,0004.02,0001.27,0001.03
